User: anonymous   Login
Location: Bangkok
(13.7500°N, 100.5170°E)
Time: 21:11:14
(UTC+07:00)
Language:

Cosmos 1898 Rocket - Orbit

View from above orbital plane
View from above orbital plane
View from above satellite
View from above satellite

Ground track
Ground track

The orbit data is extracted from the following two-line orbital elements,

1 18586U 87098B   17081.63563858 +.00000154 +00000-0 +60924-4 0  9996
2 18586 074.0048 094.7109 0020926 175.5304 323.8435 14.36770185534627
Epoch (UTC): 22 March 2017 15:15:19
Eccentricity: 0.0020926
inclination: 74.0048°
perigee height: 754 km
apogee height: 784 km
right ascension of ascending node: 94.7109°
argument of perigee: 175.5304°
revolutions per day: 14.36770185
mean anomaly at epoch: 323.8435°
orbit number at epoch: 53462

The dashed part of the orbit path shows where the satellite is in the earth's shadow,  

DLR